Location: Moreno
(33.9175°N, 117.1578°W)
Time: 04:23:00
(UTC+00:00)

SL-14 R/B - Pass Details

Date: 18 April 2024
Orbit: 507 x 541 km, 82.4° (Epoch: 28 May)

Event Time Altitude Azimuth Distance (km) Brightness Sun altitude
Rises 12:40:37 0° 181° (S) 2,671 6.6 -7.4°
Reaches altitude 10° 12:42:45 10° 180° (S) 1,789 5.8 -6.9°
Maximum altitude 12:46:40 74° 96° (E) 565 3.6 -6.2°
Drops below altitude 10° 12:50:39 10° 11° (N) 1,812 6.4 -5.4°
Sets 12:52:50 0° 9° (N) 2,709 7.2 -4.9°
